Regional Weather Roundup
Issued by NWS

Home | Current Version | Previous Version | Graphics & Text | Print | Product List | Glossary On
Versions: 1 2 3 4 5 6 7 8 9 10 11 12 13 14 15 16 17 18 19 20 21 22 23 24 25 26 27 28 29 30 31 32 33 34 35 36 37 38 39 40 41 42 43 44 45 46 47 48 49 50
000
ASUS43 KLOT 271508
RWRIL

ILLINOIS REGIONAL WEATHER ROUNDUP
NATIONAL WEATHER SERVICE CHICAGO/ROMEOVILLE IL
1000 AM CDT WED MAY 27 2015

NOTE: "FAIR" INDICATES FEW OR NO CLOUDS BELOW 12,000 FEET WITH NO
SIGNIFICANT WEATHER AND/OR OBSTRUCTIONS TO VISIBILITY.

* THESE STATIONS ARE NOT UNDER NWS QUALITY CONTROL. THEY ALSO MAY NOT
  REPORT WEATHER SUCH AS PRECIPITATION OR FOG.

ILZ001-002-007-009-015-016-024-271600-
NORTHWEST ILLINOIS

CITY           SKY/WX    TMP DP  RH WIND       PRES   REMARKS
MOLINE         PTSUNNY   70  58  65 NW16G24   29.99R
STERLING*      CLOUDY    68  57  68 W17G24    29.98R
SAVANNA*       CLOUDY    67  57  72 W10       29.99R
$$

ILZ003-004-008-010-011-017-018-271600-
NORTH CENTRAL ILLINOIS

CITY           SKY/WX    TMP DP  RH WIND       PRES   REMARKS
ROCKFORD       PTSUNNY   66  58  75 W9        29.97R
FREEPORT*      CLOUDY    63  58  84 W17       29.98S
ROCHELLE*      CLOUDY    67  60  77 W14G25    29.98R
DE KALB*       PTSUNNY   66  59  80 W18G24    29.97R
PERU*          CLOUDY    69  59  69 W10G17    30.00R
$$

ILZ005-006-012>014-019>023-271600-
NORTHEAST ILLINOIS

CITY           SKY/WX    TMP DP  RH WIND       PRES   REMARKS
CHICAGO-OHARE  PTSUNNY   69  58  67 W20G26    29.94S
CHICAGO-MIDWAY PTSUNNY   73  60  63 SW17G24   29.95R
AURORA         PTSUNNY   70  60  70 SW13      29.97R
LANSING*       PTSUNNY   72  59  62 W16G22    29.97R
JOLIET*        PTSUNNY   72  61  69 SW13G22   29.97S
WAUKEGAN       PTSUNNY   68  59  73 SW10G23   29.92S
DUPAGE AIRPORT PTSUNNY   69  59  70 W17       29.96R
KANKAKEE*      CLOUDY    73  64  75 SW18      30.00R
WHEELING       CLOUDY    68  57  68 W16G24    29.95S
MORRIS*        MOSUNNY   70  60  72 W13G20    29.97R
ROMEOVILLE*    MOSUNNY   70  59  69 W21       29.97S
NORTHERLY ISL    N/A     70  56  61 SW12        N/A
$$

LMZ740>746-271600-
SOUTHERN LAKE MICHIGAN

STATION/POSITION SKY/WX   TEMP    WIND        PRES    VSBY  WAVE
                          AIR SEA DIR/SP/G                  HT/PER
                          (F)     (DEG/KT/KT) (MB)    (MI)  (FT/S)
SOUTHERN BUOY              45 38  200/ 10/ 10 1013.9R         2/ 3
HARRISON CRIB              67     240/ 14/ 19   N/A
BURNHAM HARBOR             70     230/ 10/ 19   N/A
CALUMET HARBOR             70     230/ 11/ 20   N/A
BURNS HARBOR               69     240/ 17/ 21 1014.9F
MICHIGAN CITY              68     200/ 14/ 17   N/A
MICHIGAN CITY 6N           59 52  250/  8/ 10   N/A           1/ 3
ST. JOSEPH                 59 55  260/ 10/ 12   N/A           2/ 3
$$

ILZ025>027-034>036-040-047-049-050-058-095>099-271600-
WEST-CENTRAL ILLINOIS

CITY           SKY/WX    TMP DP  RH WIND       PRES   REMARKS
QUINCY         PTSUNNY   69  58  67 W12       30.04S
GALESBURG*     PTSUNNY   68  60  75 SW6       30.02R
MACOMB*        PTSUNNY   69  60  74 W12       30.04S
JACKSONVILLE*  CLOUDY    72  65  78 SW13      30.04S
PITTSFIELD*    CLOUDY    71  62  73 W9        30.05S
$$

ILZ028>032-037-038-041>044-048-051>054-059>061-271600-
CENTRAL ILLINOIS

CITY           SKY/WX    TMP DP  RH WIND       PRES   REMARKS
PONTIAC        CLOUDY    71  62  72 W13       30.01R
BLOOMINGTON    CLOUDY    70  65  84 W13       30.03S
DECATUR        CLOUDY    71  64  78 SW15G25   30.03S
PEORIA         PTSUNNY   72  61  68 SW9       30.01R
LACON*         MOSUNNY   70  59  67 W9        29.99S
LINCOLN*       CLOUDY    72  64  78 SW6       30.00S
SPRINGFIELD    CLOUDY    72  64  76 SW9       30.03F
TAYLORVILLE    CLOUDY    70  64  83 SW12G23   30.04F
$$

ILZ033-039-045-046-055>057-062-063-271600-
EAST-CENTRAL ILLINOIS

CITY           SKY/WX    TMP DP  RH WIND       PRES   REMARKS
CHAMPAIGN      CLOUDY    72  64  76 SW18G29   30.03S
DANVILLE*      CLOUDY    71  65  81 SW12      29.99F
RANTOUL*       CLOUDY    74  66  76 SW15      30.02S
MATTOON        CLOUDY    72  63  73 SW10G23   30.06R
PARIS*         CLOUDY    75  65  70 SW22G28   30.06R
$$

ILZ079-100>102-271600-
SOUTHWEST ILLINOIS

CITY           SKY/WX    TMP DP  RH WIND       PRES   REMARKS
ALTON          CLOUDY    70  66  88 S9        30.05
BELLEVILLE     CLOUDY    69  63  82 S2        30.03F
CAHOKIA*         N/A     71  61  70 MISG      30.04F
SPARTA*        CLOUDY    65  62  92 SE8       30.04F
$$

ILZ064>066-069>071-074>076-080>082-084>086-088>090-092>094-271600-
SOUTH-CENTRAL ILLINOIS

CITY           SKY/WX    TMP DP  RH WIND       PRES   REMARKS
CARBONDALE     LGT RAIN  66  62  87 CALM      30.07F
CAIRO*         PTSUNNY   71  63  76 NW7       30.13F
EFFINGHAM*     CLOUDY    68  56  65 SW13G18   30.08F
MARION         PTSUNNY   68  64  88 MISG      30.11F
MT. VERNON     CLOUDY    66  61  82 SE5       30.08F
CENTRALIA*     CLOUDY    70  66  86 CALM      30.04F
SALEM*         LGT RAIN  66  62  84 SW8       30.08F
METROPOLIS*    LGT RAIN  69  67  92 NW7       30.13S
$$

ILZ067-068-072-073-078-083-087-091-271600-
SOUTHEAST ILLINOIS

CITY           SKY/WX    TMP DP  RH WIND       PRES   REMARKS
LAWRENCEVILLE  PTSUNNY   76  64  66 W14G22    30.09R
FLORA*         DRIZZLE   67  62  83 SW14      30.11R
FAIRFIELD*     RAIN      69  63  80 SW8G17    30.10S
HARRISBURG*    PTSUNNY   69  67  93 W12       30.14F
ROBINSON*      PTSUNNY   76  63  65 W12       30.09R
CARMI*         RAIN      70  61  73 W15G28    30.11S
$$

ABBREVIATIONS USED IN REMARKS
   TC - TEMPERATURE IN CELSIUS
  WCI - WIND CHILL INDEX
   HX - HEAT INDEX
  VSB - VISIBILITY
$$




USA.gov is the U.S. government's official web portal to all federal, state and local government web resources and services.